logo tempoitalia

Diretta Meteo Ellensburg Bowers Fld, Stati Uniti (USA)domenica 30 agosto ore 22:53

Mappa
Sereno 14 °C Sereno 24 Ore: T.min 8 T.max 23
Ponente Nord-Ovest Km/h 14.8 Punto di rugiada: 8 °C Umidità: 67% Visibilità: 10 Km
Il sole sorge alle: 06:19 Il sole tramonta alle: 19:45
30 Agosto 2026 22:53 tempo osservato: Sereno Sereno 14 67 1016 vento: Nord NO 14.8
30 Agosto 2026 21:53 tempo osservato: Sereno Sereno 16 58 1016 vento: Nord NO 24
30 Agosto 2026 20:53 tempo osservato: Sereno Sereno 17 51 1015 vento: Nord NO 35.2
30 Agosto 2026 19:53 tempo osservato: Sereno Sereno 18 51 1015 vento: Nord NO 37
30 Agosto 2026 18:53 tempo osservato: Sereno Sereno 19 48 1015 vento: Nord NO 40.7
30 Agosto 2026 17:53 tempo osservato: Sereno Sereno 21 40 1015 vento: Nord NO 35.2
30 Agosto 2026 16:53 tempo osservato: Sereno Sereno 23 33 1015 vento: Nord NO 29.6
30 Agosto 2026 15:53 tempo osservato: Sereno Sereno 23 33 1015 vento: Nord NO 22.2
30 Agosto 2026 14:53 tempo osservato: Sereno Sereno 22 32 1016 vento: Nord NO 22.2
30 Agosto 2026 13:53 tempo osservato: Sereno Sereno 22 35 1017 vento: Nord NO 20.3
30 Agosto 2026 12:53 tempo osservato: Sereno Sereno 19 39 1017 vento: Nord O/NO 16.7
30 Agosto 2026 11:53 tempo osservato: Sereno Sereno 18 42 1017 vento: Nord NO 27.8
30 Agosto 2026 10:53 tempo osservato: Sereno Sereno 18 42 1017 vento: Nord NO 25.9
30 Agosto 2026 09:53 tempo osservato: Sereno Sereno 17 45 1018 vento: Nord O/NO 20.3
30 Agosto 2026 08:53 tempo osservato: Sereno Sereno 14 58 1018 vento: Nord NO 11.1
30 Agosto 2026 07:53 tempo osservato: Sereno Sereno 11 71 1018 vento: Nord N 0
30 Agosto 2026 06:53 tempo osservato: Sereno Sereno 9 75 1018 vento: Nord O 7.4
30 Agosto 2026 05:53 tempo osservato: Sereno Sereno 9 81 1017 vento: Nord O/NO 13
30 Agosto 2026 04:53 tempo osservato: Sereno Sereno 11 71 1017 vento: Nord NO 18.5
30 Agosto 2026 03:53 tempo osservato: Sereno Sereno 11 71 1017 vento: Nord NO 18.5
30 Agosto 2026 02:53 tempo osservato: Sereno Sereno 8 81 1017 vento: Nord NO 14.8
30 Agosto 2026 01:53 tempo osservato: Sereno Sereno 11 71 1017 vento: Nord NO 11.1
30 Agosto 2026 00:53 tempo osservato: Sereno Sereno 11 76 1017 vento: Nord NO 18.5
29 Agosto 2026 23:53 tempo osservato: Sereno Sereno 11 76 1017 vento: Nord NO 16.7